Weather Service Report


810 
FPUS83 KFGF 260210
OPUFGF
PRAIRIE TO PINES WEATHER ROUNDUP
NATIONAL WEATHER SERVICE EASTERN NORTH DAKOTA/GRAND FORKS ND
900 PM CDT TUE APR 25 2017

 **SATELLITE DATA USED TO AUGMENT SKY COVER AT AUTOMATED STATIONS**
 *****  WEATHER ACROSS EASTERN NORTH DAKOTA  *****
  
CITY           SKY/WX    TMP DP  RH WIND       PRES   REMARKS
GRAND FORKS    CLOUDY    36  28  73 NE21G28   29.89R                  
GRAND FORKS AF CLOUDY    34  28  78 NE16G22   29.89R WCI  24          
GRAND CITY NWS NOT AVBL                                               
BUXTON         NOT AVBL                                               
DEVILS LAKE    FAIR      34  28  79 NE12      29.91R                  
FARGO          CLOUDY    34  28  79 N22G30    29.80R WCI  22          
WAHPETON ARPT  CLOUDY    36  32  87 N20       29.76R                  
$$

 *****  WEATHER ACROSS CENTRAL AND WESTERN NORTH DAKOTA  *****
  
CITY           SKY/WX    TMP DP  RH WIND       PRES   REMARKS
JAMESTOWN      CLOUDY    32  27  81 N17G26    29.86R WCI  21          
BISMARCK       CLOUDY    37  27  67 N12       29.90R                  
MINOT          CLOUDY    39  26  59 N10       29.93S                  
MINOT AFB      CLOUDY    39  24  55 N16       29.93S                  
GARRISON         N/A     37  26  64 NE6       29.92R                  
WILLISTON      MOCLDY    39  25  57 N8        29.97S                  
DICKINSON      MOCLDY    31  23  72 N10       29.89S WCI  22          
HETTINGER      CLOUDY    31  24  75 N9        29.90R WCI  23          
$$

 *****  OTHER OBSERVATIONS NORTHEAST NORTH DAKOTA  *****
  
CITY           SKY/WX    TMP DP  RH WIND       PRES   REMARKS
WALHALLA       NOT AVBL                                               
LANGDON        FAIR      36  28  75 NE12      29.92S                  
CAVALIER       FAIR      36  27  69 NE13      29.94S                  
GRAFTON        CLOUDY    34  28  80 NE15G23   29.94S WCI  24          
CANDO          NOT AVBL                                               
FORT TOTTEN      N/A     34  29  83 NE7       29.95S                  
ROLLA          CLOUDY    34  25  69 N17G24    29.95S WCI  23          
RUGBY          NOT AVBL                                               
 ***** THE ABOVE OBSERVATIONS ARE NON NWS ARE NOT QUALITY
        CONTROLLED AND MAY MIS-REPORT RAIN FOR SNOW...
$$

 *****  OTHER OBSERVATIONS SOUTHEAST NORTH DAKOTA *****
  
CITY           SKY/WX    TMP DP  RH WIND       PRES   REMARKS
COOPERSTOWN    CLOUDY    32  28  86 N23G29    29.87R WCI  19          
VALLEY CITY    CLOUDY    32  32 100 N18G24    29.85S WCI  20          
OAKES          NOT AVBL                                               
GWINNER        CLOUDY    34  30  86 MISG      29.79R                  
BUFFALO        NOT AVBL                                               
WYNDMERE         N/A     36  30  80 N20         N/A                   
 ***** THE ABOVE OBSERVATIONS ARE NON NWS ARE NOT QUALITY
       CONTROLLED AND MAY MIS-REPORT RAIN FOR SNOW...
$$

  *****  WEATHER ACROSS NORTHERN MINNESOTA  *****     
  
CITY           SKY/WX    TMP DP  RH WIND       PRES   REMARKS
FLAG ISLAND    CLOUDY    30  25  80 NE17G28   29.96R WCI  18          
WARROAD        CLOUDY    30  27  86 NE21G32   29.93S WCI  17          
ROSEAU         CLOUDY    32  27  80 NE17G23   29.92F WCI  21          
HALLOCK        CLOUDY    36  27  69 NE14G22   29.93S                  
THF RVR FALLS  CLOUDY    31  27  85 NE21G30   29.87R WCI  18          
HALSTAD          N/A     33  28  84 NE23        N/A  WCI  20          
FOSSTON        CLOUDY    30  28  93 N17G26    29.81R WCI  18          
BAUDETTE       CLOUDY    30  23  75 NE13G22   29.90R WCI  20          
WASKISH        CLOUDY    30  27  86 NE9G22    29.86R WCI  22          
CROOKSTON      CLOUDY    34  28  80 NE17G24   29.88R WCI  23          
$$
  *****  WEATHER ACROSS CENTRAL AND WEST MINNESOTA  *****     
  
CITY           SKY/WX    TMP DP  RH WIND       PRES   REMARKS
BEMIDJI        CLOUDY    31  27  87 NE13G18   29.80R WCI  21          
PARK RAPIDS    CLOUDY    35  28  75 NE16G26   29.74R                  
WADENA         CLOUDY    36  32  87 NE13G21   29.71R                  
DETROIT LAKES  CLOUDY    36  32  87 NE13      29.75R                  
MOORHEAD       CLOUDY    34  28  80 N21G26    29.79R WCI  22          
FERGUS FALLS   CLOUDY    37  32  81 NE13G22   29.72R                  
ELBOW LAKE     CLOUDY    39  35  85 NE14      29.70R                  
MORRIS MN      DRIZZLE   41  37  87 N16       29.67R                  
STAPLES        DRIZZLE   36  32  87 NE13G23   29.70R                  
WHEATON        CLOUDY    37  32  81 NW17G23   29.74S                  
$$
  *****  WEATHER ELSEWHERE ACROSS MINNESOTA  *****     
  
CITY           SKY/WX    TMP DP  RH WIND       PRES   REMARKS
DULUTH         LGT RAIN  41  40  96 NE7       29.70S FOG              
INTRNTL FALLS  CLOUDY    29  23  78 NE15G23   29.89R WCI  18          
ELY            MIX PCPN  28  27  93 NE8       29.81R WCI  20          
CLOQUET        LGT RAIN  43  39  87 E9        29.70R                  
BRAINERD       LGT RAIN  39  36  89 N14       29.70R                  
HIBBING        CLOUDY    30  28  92 N14G24    29.76S WCI  19          
ALEXANDRIA     CLOUDY    40  35  83 NE15G23   29.68R                  
SAINT CLOUD    LGT RAIN  47  45  93 NE10      29.62R                  
MINNEAPOLIS    LGT RAIN  54  51  90 NE8       29.57R FOG              
$$

  *****  WEATHER ACROSS SOUTH DAKOTA  *****
  
CITY           SKY/WX    TMP DP  RH WIND       PRES   REMARKS
SIOUX FALLS    LGT RAIN  37  37 100 N20G25    29.66S                  
BROOKINGS      LGT RAIN  34  33  96 N18       29.67S WCI  23          
WATERTOWN      CLOUDY    33  31  92 N17       29.70R WCI  22          
HURON          MIX PCPN  33  32  96 N17       29.77R WCI  22          
SISSETON         N/A     35  33  92 N21       29.74R WCI  24          
ABERDEEN       CLOUDY    33  26  75 N22G29    29.80R WCI  21          
MITCHELL       CLOUDY    35  32  88 N20G26    29.75S WCI  24          
PIERRE         LGT SNOW  32  28  85 N14       29.82R FOG     WCI  22  
MOBRIDGE       CLOUDY    34  25  69 N15       29.84R WCI  24          
RAPID CITY     CLOUDY    28  24  85 N16       29.87R WCI  16          
$$

  *****  SOME WEATHER IN NEARBY STATES *****
  
CITY           SKY/WX    TMP DP  RH WIND       PRES   REMARKS
GLASGOW MT     CLOUDY    42  23  46 SE8       29.94S                  
GREAT FALLS MT LGT RAIN  38  36  92 NE9       29.83S                  
CHEYENNE WY    FAIR      29  22  75 N17G28    29.77R WCI  17          
SCOTTSBLUFF NE CLOUDY    33  27  78 NE21      29.80R WCI  21          
OMAHA NE       LGT RAIN  44  40  85 N17       29.59R                  
DES MOINES IA  LGT RAIN  57  49  74 NW16      29.46R                  
DAVENPORT IA   MOCLDY    70  49  47 SE12      29.47S HAZE             
CHICAGO IL     CLOUDY    73  51  46 SE10      29.55R                  
EAU CLAIRE WI  CLOUDY    55  54  96 NE7       29.55F                  
LA CROSSE WI   CLOUDY    60  53  77 CALM      29.51S                  
$$

  *****  SOME NATIONAL WEATHER *****
  
CITY           SKY/WX    TMP DP  RH WIND       PRES   REMARKS
LA GUARDIA NY  RAIN      52  50  93 NE20      29.88F FOG              
RALEIGH NC     MOCLDY    62  59  90 VRB3      29.74R                  
ATLANTA GA     FAIR      69  56  62 NW6       29.76R                  
NEW ORLEANS LA FAIR      69  60  73 S6        29.75S                  
OKLAHOMA CITY  MOCLDY    70  60  70 NW16      29.42R                  
ALBUQUERQUE NM MOCLDY    47  38  71 VRB7      29.73R                  
SALT LAKE CITY MOCLDY    50  37  61 CALM      29.90S                  
LOS ANGELES CA MOCLDY    64  52  64 W12       29.86R                  
BOISE ID       FAIR      55  31  39 NW6       29.88F                  
SEATTLE WA     LGT RAIN  53  43  68 W7        29.80F                  
$$

*** WEATHER ACROSS MANITOBA...SASKATCHEWAN AND ONTARIO ***
                ***ONTARIO***
  
CITY           SKY/WX    TMP DP  RH WIND       PRES   REMARKS
GERALDTON      LGTSLEET  18  14  86 NE10G23   29.99R WCI   6          
THUNDER BAY    FRZ RAIN  27  23  86 N5        29.86R WCI  21          
SIOUX LOOKOUT  CLOUDY    23  18  80 NE7G17    30.00R WCI  15          
TORONTO        PTCLDY    50  46  87 E14G21    29.86S                  
BIG TROUT LK   CLEAR     19   7  58 NE7       30.27R WCI  10          
PICKLE LAKE    CLOUDY    21  16  79 NE13G24   30.11R WCI   9          
DRYDEN         CLOUDY    25  21  86 NE22G32   29.96R WCI  10          
KENORA         CLOUDY    28  21  74 NE17G24   29.97R WCI  16          
$$      
                *** MANITOBA***
  
CITY           SKY/WX    TMP DP  RH WIND       PRES   REMARKS
BRANDON        MOCLDY    32  19  59 NE15      30.05R WCI  22          
DAUPHIN        CLEAR     30  16  55 NE10      30.13R WCI  21          
ISLAND LAKE    CLEAR     27   1  33 NE6       30.23  WCI  20          
PILOT MOUND      N/A     36  25  64 N13G18      N/A                   
THE PAS        PTCLDY    30   1  29 E3        30.20R                  
THOMPSON       CLEAR     21  -6  30 NE5       30.28S WCI  15          
WINNIPEG       MOCLDY    37  27  65 NE10      30.00R                  
LYNN LAKE      CLEAR     28   5  37 S6        30.21R WCI  22          
CHURCHILL      CLEAR      3  -2  78 S16       30.36F WCI -16          
GILLAM         CLEAR     10  -2  56 E5        30.36S WCI   2          
$$
                ***SASKATCHEWAN***
  
CITY           SKY/WX    TMP DP  RH WIND       PRES   REMARKS
ESTEVAN        MOCLDY    36  23  60 NE8       29.99S                  
KINDERSLEY     LGT SNOW  30  28  93 E13       29.96S VSB 1   WCI  20  
LLOYDMINSTER   LGT SNOW  30  30 100 SE15      30.01S WCI  19          
PRINCE ALBERT  PTCLDY    34  16  47 E6        30.08F                  
REGINA         MOCLDY    36  23  60 E7        30.03S                  
YORKTON        CLEAR     32  19  59 N10       30.07R WCI  24          
N. BATTLEFORD  CLOUDY    34  21  60 E10       30.06S   

Return to Home page


Western Regional Climate Center, wrcc@dri.edu